Regional Weather Roundup
Issued by NWS Sterling, VA

Home | Current Version | Previous Version | Graphics & Text | Print | Product List | Glossary On
Versions: 1 2 3 4 5 6 7 8 9 10 11 12 13 14 15 16 17 18 19 20 21 22 23 24 25 26 27 28 29 30 31 32 33 34 35 36 37 38 39 40 41 42 43 44 45 46 47 48 49 50
000
ASUS41 KLWX 020010
RWRLWX

REGIONAL WEATHER ROUNDUP
NATIONAL WEATHER SERVICE BALTIMORE MD/WASHINGTON DC
800 PM EDT FRI AUG 01 2014

Note: "FAIR" indicates few or no clouds below 12,000 feet
with no significant weather and/or obstructions to visibility.
 TC=TEMPERATURE CELSIUS

 * =Non NWS site. Station does not report precipitation (e.g. rain,
    snow, etc.), thunder, or fog.

DCZ001-MDZ009-015-VAZ040>042-051-053>054-020100-
WASHINGTON METRO
  /KDAA//-FT BELVOIR

CITY           SKY/WX    TMP DP  RH WIND       PRES   REMARKS
WASHINGTON NAT CLOUDY    76  63  64 SE3       30.16S
DULLES         CLOUDY    72  60  66 S6        30.15F
ANDREWS AFB    CLOUDY    71  66  84 E3        30.16S
QUANTICO       CLOUDY    74  66  76 E6        30.15F
COLLEGE PARK*  CLOUDY    73  64  73 CALM      30.15S
LEESBURG*      CLOUDY    73  68  83 CALM      30.16F
MANASSAS*      PTCLDY    73  64  73 E3        30.15F
GAITHERSBURG*  CLOUDY    73  63  68 SE6       30.20S

$$

MDZ006>007-011-014-020100-
BALTIMORE METRO

CITY           SKY/WX    TMP DP  RH WIND       PRES   REMARKS
BWI AIRPORT    CLOUDY    74  64  71 CALM      30.15S
MD SCIENCE CTR   N/A     76  65  68 MISG      30.16R
MARTIN STATE   RAIN      70  66  88 E8        30.18S
ANNAPOLIS      CLOUDY    75  67  76 E7        30.16R
FORT MEADE*    CLOUDY    70  64  83 CALM      30.18S

$$

MDZ012-015-019>023-020100-
MARYLAND EASTERN SHORE

CITY           SKY/WX    TMP DP  RH WIND       PRES   REMARKS
OCEAN CITY     CLOUDY    74  69  85 E7        30.15S
SALISBURY      CLOUDY    74  69  85 E3        30.16R
BAY BRIDGE AP*   N/A     73  64  73 E6        30.16R
CAMBRIDGE*     CLOUDY    72  68  88 E5        30.15S
EASTON*        CLOUDY    73  73 100 CALM      30.19F

$$

MDZ017>025-020100-
SOUTHERN MARYLAND

CITY           SKY/WX    TMP DP  RH WIND       PRES   REMARKS
PATUXENT RIVER LGT RAIN  69  66  90 NE3       30.15S
ST INIGOES     LGT RAIN  69  64  84 CALM      30.15S
LEONARDTOWN*   CLOUDY    66  64  94 CALM      30.17S

$$

MDZ003>005-020100-
NORTH CENTRAL MARYLAND

CITY           SKY/WX    TMP DP  RH WIND       PRES   REMARKS
FREDERICK*     CLEAR     73  68  83 CALM      30.18S
HAGERSTOWN APT MOCLDY    73  63  70 S6        30.16S
WESTMINSTER*   CLOUDY    73  66  78 CALM      30.17F

$$

MDZ501>502-020100-
WESTERN MARYLAND

CITY           SKY/WX    TMP DP  RH WIND       PRES   REMARKS
OAKLAND*       MOCLDY    63  63 100 SE9       30.20S
CUMBERLAND*    CLOUDY    75  63  64 CALM      30.17S

$$

VAZ025>031-020100-
SHENANDOAH VALLEY

CITY           SKY/WX    TMP DP  RH WIND       PRES   REMARKS
WINCHESTER*    MOCLDY    70  63  78 SE3       30.16F
STAUNTON*      CLOUDY    71  60  70 CALM      30.19S

$$

WVZ021-048>050-054>055-020100-
EASTERN WEST VIRGINIA PANHANDLE

CITY           SKY/WX    TMP DP  RH WIND       PRES   REMARKS
MARTINSBURG    MOCLDY    73  62  68 S3        30.16S
PETERSBURG*    MOCLDY    72  56  55 SE7       30.15S

$$

VAZ036>039-050-020100-
CENTRAL FOOTHILLS

CITY           SKY/WX    TMP DP  RH WIND       PRES   REMARKS
CHARLOTTESVILL CLOUDY    71  64  78 NE5       30.15F
ORANGE*        CLOUDY    70  64  83 CALM      30.16F

$$

VAZ055>057-020100-
NORTH AND CENTRAL PIEDMONT

CITY           SKY/WX    TMP DP  RH WIND       PRES   REMARKS
FREDERICKSBRG* RAIN      74  68  82 E6        30.14S
STAFFORD*      CLOUDY    73  72  96 E3        30.18F

$$

NCZ024-NYZ072-PAZ021-071-VAZ022-071-020100-
OTHER REGIONAL OBSERVATIONS

CITY           SKY/WX    TMP DP  RH WIND       PRES   REMARKS
NEW YORK CITY  CLOUDY    75  65  70 VRB7      30.21S
PHILADELPHIA   CLOUDY    74  68  81 E5        30.19S
PITTSBURGH     PTCLDY    76  59  55 SE7       30.10R
ROANOKE        CLOUDY    67  61  81 NE5       30.17S
RICHMOND       LGT RAIN  70  66  87 NE5       30.14S FOG
RALEIGH        DRIZZLE   65  62  90 NE8       30.10S FOG

$$

ANZ530>537-020100-
MARINE OBSERVATIONS

STATION/POSITION TIME  TEMP    WIND        PRES
                       AIR SEA DIR/SP/G
                 (UTC) (F)     (DEG/KT/KT) (MB)
THOMAS PT LIGHT  0000   74 78  130/  9/ 10 1021.6R
BALT KEY BRIDGE  0000           80/  8/  9 1021.0F
COVE POINT       0000   72     110/  5/  6 1020.9F
LEWISETTA        0000   75 78  110/ 11/ 13 1020.6S
SOLOMONS ISLAND  0000      79                N/A
PINEY POINT      0000           60/  4/  5   N/A

$$




USA.gov is the U.S. government's official web portal to all federal, state and local government web resources and services.